User: anonymous   Login
Location: Fountain Hills
(33.6120°N, 111.7170°W)
Time: 04:22:53
(UTC-07:00)
Language:

Hamsat - Orbit

View from above orbital plane
View from above orbital plane
View from above satellite
View from above satellite

Ground track
Ground track

The orbit data is extracted from the following two-line orbital elements,

1 28650U 05017B   17346.87240190  .00000316  00000-0  39383-4 0  9996
2 28650  97.6745 315.3928 0022021 258.7800 101.0942 14.88826795682752
Epoch (UTC): 12 December 2017 20:56:15
Eccentricity: 0.0022021
inclination: 97.6745°
perigee height: 586 km
apogee height: 617 km
right ascension of ascending node: 315.3928°
argument of perigee: 258.7800°
revolutions per day: 14.88826795
mean anomaly at epoch: 101.0942°
orbit number at epoch: 68275

The dashed part of the orbit path shows where the satellite is in the earth's shadow,  

DLR